Location: The Saddle
(36.8333°N, 80.3417°W)
Time: 08:36:03
(UTC-05:00)

Vanguard 2 Rocket - Pass Details

Date: 10 December 2023
Orbit: 555 x 3309 km, 32.9° (Epoch: 02 March)

Event Time Altitude Azimuth Distance (km) Brightness Sun altitude
Rises 16:01:54 0° 269° (W) 6,239 12.1 9.7°
Reaches altitude 10° 16:05:32 10° 268° (W) 5,500 11.9 9.1°
Maximum altitude 16:23:48 78° 186° (S) 3,349 10.0 6.2°
Drops below altitude 10° 16:43:22 10° 105° (ESE) 5,826 10.6 2.9°
Sets 16:47:21 0° 104° (ESE) 6,607 10.9 2.2°
